This is the latest recevied weather packets stored in our database for station/object K1RFS. If no packets are shown the sender has not sent any weather packets the latest 10 day(s).
| Time | Temp. | Humidity | Pressure | Rain* | Wind** | Luminosity | Snow |
|---|---|---|---|---|---|---|---|
| 1778088955 | 11.67° C | 26% | 1005 hPa | 0 mm | - | 59 W/m² | - |
| 1778088652 | 11.11° C | 29% | 1004.8 hPa | 0 mm | - | 37 W/m² | - |
| 1778088349 | 11.67° C | 29% | 1005 hPa | 0 mm | - | 37 W/m² | - |
| 1778088045 | 11.67° C | 29% | 1004.8 hPa | 0 mm | - | 36 W/m² | - |
| 1778087743 | 11.11° C | 28% | 1004.6 hPa | 0 mm | - | 36 W/m² | - |
| 1778087441 | 11.11° C | 29% | 1004.7 hPa | 0 mm | - | 36 W/m² | - |
| 1778087138 | 11.67° C | 29% | 1004.7 hPa | 0 mm | - | 35 W/m² | - |
| 1778086830 | 11.11° C | 29% | 1004.4 hPa | 0 mm | - | 35 W/m² | - |
| 1778086528 | 11.11° C | 28% | 1004.5 hPa | 0 mm | - | 35 W/m² | - |
| 1778086223 | 10.56° C | 25% | 1004.6 hPa | 0 mm | - | 34 W/m² | - |
| 1778085920 | 10.56° C | 26% | 1004.4 hPa | 0 mm | - | 34 W/m² | - |
| 1778085618 | 10.56° C | 26% | 1004.4 hPa | 0 mm | - | 34 W/m² | - |
| 1778085314 | 10.56° C | 27% | 1004 hPa | 0 mm | - | 33 W/m² | - |
| 1778085010 | 10.56° C | 29% | 1004 hPa | 0 mm | - | 33 W/m² | - |
| 1778084706 | 11.11° C | 29% | 1004.2 hPa | 0 mm | - | 33 W/m² | - |
| 1778084398 | 10.56° C | 29% | 1004.1 hPa | 0 mm | - | 32 W/m² | - |
| 1778084095 | 10.56° C | 29% | 1004 hPa | 0 mm | - | 32 W/m² | - |
| 1778083793 | 10.56° C | 29% | 1003.9 hPa | 0 mm | - | 32 W/m² | - |
| 1778083490 | 10.56° C | 33% | 1003.8 hPa | 0 mm | - | 32 W/m² | - |
| 1778083187 | 10.56° C | 33% | 1003.7 hPa | 0 mm | - | 31 W/m² | - |
| 1778082885 | 10.56° C | 33% | 1003.4 hPa | 0 mm | - | 31 W/m² | - |
| 1778081776 | 9.44° C | 41% | 1003.4 hPa | 0 mm | - | 30 W/m² | - |
| 1778081474 | 9.44° C | 40% | 1003.3 hPa | 0 mm | - | 30 W/m² | - |
| 1778081171 | 10° C | 39% | 1003.2 hPa | 0 mm | - | 30 W/m² | - |
| 1778080869 | 10° C | 38% | 1003.3 hPa | 0 mm | - | 29 W/m² | - |
* Rain latest hour (hover to see other rain measurements)
** Current wind speed in m/s (hover to see current wind gust speed)